Flag for U.S.A. Weather past 2 weeks in Boise, Idaho, U.S.A.

Now
42 °F

Cloudy.


Feels Like: 34 °F
Forecast: 36 / 42 °F
Wind: 17 mph from Southeast

Location: Boise Air Terminal

Current Time: Dec 19, 2014 at 2:28:05 PM

Latest Report: Dec 19, 2014 at 1:53 PM


Visibility: 10 mi

Pressure: 30.05 "Hg

Humidity: 79%

Dew point: 36 °F

Location of BoiseLocation

Historic Weather in Boise — Graph

°F

Boise temperature yesterday

Maximum temperature yesterday: 47 °F (at 12:53 PM)
Minimum temperature yesterday: 35 °F (at 3:53 AM)
Average temperature yesterday: 41 °F

Past Weeks' High & Low Weather Summary

 TemperatureHumidityPressure
High61 °F (Dec 11, 1:53 PM)100% (Dec 4, 9:53 PM)30.37 "Hg (Dec 4, 9:53 PM)
Low26 °F (Dec 14, 7:53 AM)30% (Dec 12, 8:53 AM)29.54 "Hg (Dec 11, 4:53 PM)
Average43 °F73%30.06 "Hg
* Reported Dec 4 12:53 PM — Dec 19 12:53 PM, Boise, Weather by CustomWeather, © 2014

Note: Actual official high and low records may vary slightly from our data, if they occured in-between our weather recording intervals... More about our weather records

Advertising

Boise weather history for previous 24 hours

 ConditionsComfort  
Time TempWeatherWind HumidityBarometerVisibility
12:53 PM
Dec 19
41 °FLight rain. Mostly cloudy.15 mph93%30.06 "Hg10 mi
11:53 AM42 °FLight rain. Mostly cloudy.12 mph82%30.07 "Hg8 mi
11:02 AM43 °FLight rain. Overcast.13 mph76%30.07 "Hg5 mi
10:53 AM43 °FLight rain. Overcast.15 mph74%30.08 "Hg6 mi
9:53 AM44 °FOvercast.13 mph65%30.05 "Hg10 mi
8:53 AM43 °FLight rain. Mostly cloudy.16 mph68%30.04 "Hg10 mi
7:53 AM44 °FMostly cloudy.8 mph65%30.04 "Hg10 mi
6:53 AM44 °FOvercast.10 mph68%30.04 "Hg10 mi
5:53 AM44 °FLight rain. Mostly cloudy.10 mph65%30.06 "Hg10 mi
4:53 AM44 °FOvercast.12 mph65%30.04 "Hg10 mi
3:53 AM44 °FMostly cloudy.12 mph65%30.05 "Hg10 mi
2:53 AM42 °FOvercast.9 mph73%30.07 "Hg10 mi
1:53 AM43 °FOvercast.9 mph65%30.07 "Hg10 mi
12:53 AM44 °FPassing clouds.12 mph63%30.07 "Hg10 mi
11:53 PM
Dec 18
45 °FOvercast.10 mph60%30.08 "Hg10 mi
10:53 PM44 °FOvercast.10 mph63%30.09 "Hg10 mi
9:53 PM42 °FMostly cloudy.7 mph68%30.09 "Hg10 mi
8:53 PM41 °FPassing clouds.8 mph74%30.10 "Hg10 mi
7:53 PM43 °FPassing clouds.9 mph68%30.10 "Hg10 mi
6:53 PM44 °FMostly cloudy.9 mph65%30.11 "Hg10 mi
5:53 PM44 °FMostly cloudy.10 mph65%30.10 "Hg10 mi
4:53 PM46 °FOvercast.10 mph58%30.11 "Hg10 mi
3:53 PM47 °FOvercast.9 mph56%30.10 "Hg10 mi
2:53 PM46 °FOvercast.12 mph58%30.09 "Hg10 mi
Weather by CustomWeather, © 2014

See weather overviewHow to use our weather pages